Location: Bégole
(43.1574°N, 0.3291°E)
Time: 12:55:41
(UTC+00:00)

Cosmos 407 Rocket - Pass Details

Date: 28 January 2023
Orbit: 743 x 785 km, 74.0° (Epoch: 19 March)

Event Time Altitude Azimuth Distance (km) Brightness Sun altitude
Rises 17:38:08 0° 167° (SSE) 3,201 6.8 -6.4°
Reaches altitude 10° 17:40:48 10° 155° (SSE) 2,274 5.9 -6.9°
Maximum altitude 17:45:03 27° 99° (E) 1,424 4.4 -7.6°
Drops below altitude 10° 17:49:18 10° 43° (NE) 2,270 5.4 -8.4°
Enters shadow 17:50:49 - 36° (NE) 2,783 5.9 -8.6°
